NVA1003 MPCE-MPWN

Flight info

Callsign NVA1003
Flight time N/A
Altitude 11500
Route RHT Q19 TBG A574 REMAL
Aircraft PA31/L-SDFGRY/S

Departure

Time N/A
Airport Alonso Valderrama Airport (MPCE)

Arrival

Time 2026-05-06 12:11
Airport Wannukandi Airport (MPWN)
Time Latitude Longitude Altitude Speed Heading
2026-05-06 12:10 9.27630 -78.14010 4 ft 0 kts 101°
2026-05-06 12:16 9.27624 -78.14014 4 ft 8 kts 296°
2026-05-06 12:16 9.27629 -78.14030 4 ft 0 kts 150°
2026-05-06 12:17 9.27627 -78.14029 4 ft 0 kts 146°
2026-05-06 12:17 9.27625 -78.14028 4 ft 0 kts 147°
2026-05-06 12:17 9.27624 -78.14027 4 ft 0 kts 147°
2026-05-06 12:17 9.27622 -78.14026 4 ft 0 kts 154°
2026-05-06 12:18 9.27620 -78.14026 4 ft 0 kts 163°
2026-05-06 12:18 9.27386 -78.13985 6 ft 72 kts 170°
2026-05-06 12:18 9.26724 -78.13889 210 ft 101 kts 171°
2026-05-06 12:18 9.26038 -78.13802 607 ft 95 kts 178°
2026-05-06 12:19 9.25368 -78.13895 894 ft 99 kts 199°
2026-05-06 12:19 9.24774 -78.14304 1151 ft 104 kts 233°
2026-05-06 12:19 9.24652 -78.15031 1392 ft 108 kts 288°
2026-05-06 12:19 9.24975 -78.15653 1831 ft 93 kts 298°
2026-05-06 12:20 9.25349 -78.16274 1996 ft 106 kts 305°
2026-05-06 12:20 9.25749 -78.16844 2382 ft 96 kts 304°
2026-05-06 12:20 9.25973 -78.17502 2657 ft 97 kts 282°
2026-05-06 12:20 9.26125 -78.18179 2935 ft 97 kts 283°
2026-05-06 12:21 9.26278 -78.18865 3214 ft 98 kts 283°
2026-05-06 12:21 9.26428 -78.19544 3486 ft 97 kts 283°
2026-05-06 12:21 9.26585 -78.20232 3759 ft 97 kts 284°
2026-05-06 12:21 9.26740 -78.20907 4023 ft 97 kts 284°
2026-05-06 12:22 9.26899 -78.21590 4287 ft 97 kts 284°
2026-05-06 12:22 9.27055 -78.22265 4544 ft 97 kts 284°
2026-05-06 12:22 9.27214 -78.22945 4801 ft 97 kts 284°
2026-05-06 12:22 9.27374 -78.23625 5055 ft 97 kts 284°
2026-05-06 12:23 9.27533 -78.24303 5304 ft 97 kts 284°
2026-05-06 12:23 9.27694 -78.24985 5552 ft 98 kts 284°
2026-05-06 12:23 9.27864 -78.25707 5855 ft 108 kts 284°
2026-05-06 12:23 9.28042 -78.26463 6204 ft 112 kts 284°
2026-05-06 12:24 9.28231 -78.27261 6558 ft 116 kts 284°
2026-05-06 12:24 9.28427 -78.28078 6887 ft 121 kts 284°
2026-05-06 12:24 9.28631 -78.28938 7208 ft 126 kts 284°
2026-05-06 12:24 9.28846 -78.29849 7483 ft 134 kts 284°
2026-05-06 12:25 9.29070 -78.30798 7774 ft 138 kts 284°
2026-05-06 12:25 9.29296 -78.31754 8075 ft 140 kts 284°
2026-05-06 12:25 9.29527 -78.32732 8386 ft 141 kts 284°
2026-05-06 12:25 9.29763 -78.33731 8702 ft 142 kts 283°
2026-05-06 12:26 9.29995 -78.34714 9010 ft 142 kts 283°
2026-05-06 12:26 9.30228 -78.35699 9315 ft 142 kts 283°
2026-05-06 12:26 9.30460 -78.36681 9616 ft 141 kts 283°
2026-05-06 12:26 9.30694 -78.37671 9916 ft 141 kts 283°
2026-05-06 12:27 9.30927 -78.38660 10211 ft 141 kts 283°
2026-05-06 12:27 9.31157 -78.39634 10497 ft 141 kts 283°
2026-05-06 12:27 9.31391 -78.40621 10784 ft 140 kts 283°
2026-05-06 12:27 9.31618 -78.41584 11060 ft 140 kts 283°
2026-05-06 12:28 9.31849 -78.42561 11336 ft 140 kts 283°
2026-05-06 12:28 9.32079 -78.43533 11607 ft 140 kts 283°
2026-05-06 12:28 9.32308 -78.44506 11875 ft 139 kts 282°
2026-05-06 12:28 9.32538 -78.45485 12141 ft 139 kts 282°
2026-05-06 12:29 9.32766 -78.46445 12399 ft 139 kts 282°
2026-05-06 12:29 9.32994 -78.47413 12655 ft 139 kts 282°
2026-05-06 12:29 9.33221 -78.48379 12907 ft 138 kts 282°
2026-05-06 12:29 9.33448 -78.49344 13156 ft 138 kts 282°
2026-05-06 12:30 9.33677 -78.50315 13403 ft 138 kts 282°
2026-05-06 12:30 9.33901 -78.51263 13640 ft 138 kts 282°
2026-05-06 12:30 9.34127 -78.52222 13877 ft 137 kts 282°
2026-05-06 12:30 9.34355 -78.53194 14115 ft 137 kts 282°
2026-05-06 12:31 9.34581 -78.54156 14346 ft 137 kts 282°
2026-05-06 12:31 9.34805 -78.55106 14571 ft 137 kts 282°
2026-05-06 12:31 9.35032 -78.56068 14797 ft 137 kts 282°
2026-05-06 12:31 9.35253 -78.57007 15013 ft 136 kts 282°
2026-05-06 12:32 9.35480 -78.57968 15231 ft 136 kts 282°
2026-05-06 12:32 9.35709 -78.58946 15317 ft 147 kts 282°
2026-05-06 12:32 9.35964 -78.60026 15222 ft 167 kts 283°
2026-05-06 12:32 9.36252 -78.61244 15114 ft 181 kts 283°
2026-05-06 12:33 9.36558 -78.62537 15033 ft 190 kts 283°
2026-05-06 12:33 9.36872 -78.63871 14969 ft 195 kts 283°
2026-05-06 12:33 9.37206 -78.65289 14819 ft 203 kts 283°
2026-05-06 12:33 9.37546 -78.66730 14647 ft 210 kts 283°
2026-05-06 12:34 9.37893 -78.68206 14483 ft 213 kts 283°
2026-05-06 12:34 9.38246 -78.69707 14323 ft 216 kts 283°
2026-05-06 12:34 9.38598 -78.71208 14167 ft 217 kts 283°
2026-05-06 12:34 9.38957 -78.72732 14048 ft 216 kts 283°
2026-05-06 12:35 9.39304 -78.74215 14066 ft 210 kts 283°
2026-05-06 12:35 9.39645 -78.75669 14068 ft 206 kts 283°
2026-05-06 12:35 9.39975 -78.77074 14068 ft 204 kts 283°
2026-05-06 12:35 9.40310 -78.78500 14069 ft 202 kts 283°
2026-05-06 12:36 9.40639 -78.79900 14069 ft 201 kts 283°
2026-05-06 12:36 9.40971 -78.81310 14069 ft 200 kts 283°
2026-05-06 12:36 9.41299 -78.82709 14069 ft 199 kts 283°
2026-05-06 12:36 9.41622 -78.84085 14069 ft 199 kts 283°
2026-05-06 12:37 9.41949 -78.85475 14069 ft 199 kts 283°
2026-05-06 12:37 9.42276 -78.86867 14069 ft 199 kts 283°
2026-05-06 12:37 9.42604 -78.88264 14069 ft 198 kts 283°
2026-05-06 12:37 9.42929 -78.89650 14070 ft 198 kts 283°
2026-05-06 12:38 9.43255 -78.91040 14070 ft 198 kts 283°
2026-05-06 12:38 9.43578 -78.92416 14070 ft 198 kts 283°
2026-05-06 12:38 9.43903 -78.93805 14070 ft 198 kts 283°
2026-05-06 12:38 9.44230 -78.95198 14070 ft 198 kts 283°
2026-05-06 12:39 9.44554 -78.96577 14070 ft 198 kts 283°
2026-05-06 12:39 9.44878 -78.97963 14070 ft 198 kts 283°
2026-05-06 12:39 9.45202 -78.99349 14070 ft 198 kts 283°
2026-05-06 12:39 9.45528 -79.00743 14070 ft 198 kts 283°
2026-05-06 12:40 9.45852 -79.02128 14070 ft 198 kts 283°
2026-05-06 12:40 9.46176 -79.03510 14070 ft 198 kts 283°
2026-05-06 12:40 9.46503 -79.04906 14070 ft 198 kts 283°
2026-05-06 12:40 9.46838 -79.06289 14068 ft 198 kts 288°
2026-05-06 12:41 9.47708 -79.07347 14079 ft 196 kts 328°
2026-05-06 12:41 9.48908 -79.08041 14072 ft 196 kts 333°
2026-05-06 12:41 9.50177 -79.08667 14070 ft 196 kts 336°
2026-05-06 12:41 9.51446 -79.09232 14070 ft 196 kts 338°
2026-05-06 12:42 9.52737 -79.09779 14070 ft 196 kts 339°
2026-05-06 12:42 9.54030 -79.10313 14070 ft 196 kts 339°
2026-05-06 12:42 9.55306 -79.10833 14070 ft 196 kts 339°
2026-05-06 12:42 9.56614 -79.11362 14070 ft 196 kts 339°
2026-05-06 12:43 9.57903 -79.11880 14070 ft 196 kts 339°
2026-05-06 12:43 9.59208 -79.12405 14070 ft 196 kts 339°
2026-05-06 12:43 9.60506 -79.12927 14070 ft 196 kts 339°
2026-05-06 12:43 9.61776 -79.13437 14070 ft 196 kts 339°
2026-05-06 12:44 9.63072 -79.13957 14070 ft 196 kts 339°
2026-05-06 12:44 9.64387 -79.14484 14070 ft 196 kts 339°
2026-05-06 12:44 9.65672 -79.15000 14070 ft 196 kts 339°
2026-05-06 12:44 9.66959 -79.15517 14070 ft 196 kts 339°
2026-05-06 12:45 9.68267 -79.16042 14070 ft 196 kts 339°
2026-05-06 12:45 9.69534 -79.16550 14070 ft 196 kts 339°
2026-05-06 12:45 9.72139 -79.17596 14070 ft 196 kts 339°
2026-05-06 12:46 9.73427 -79.18113 14070 ft 196 kts 339°
2026-05-06 12:46 9.74715 -79.18630 14070 ft 196 kts 339°
2026-05-06 12:46 9.76019 -79.19154 14070 ft 195 kts 339°
2026-05-06 12:46 9.77283 -79.19662 14070 ft 195 kts 339°
2026-05-06 12:47 9.78592 -79.20187 14070 ft 195 kts 339°
2026-05-06 12:47 9.79877 -79.20703 14070 ft 195 kts 339°
2026-05-06 12:47 9.81161 -79.21219 14070 ft 195 kts 339°
2026-05-06 12:47 9.82452 -79.21738 14070 ft 195 kts 339°
2026-05-06 12:48 9.83739 -79.22255 14070 ft 195 kts 339°
2026-05-06 12:48 9.85024 -79.22771 14070 ft 195 kts 339°
2026-05-06 12:48 9.86312 -79.23289 14070 ft 195 kts 339°
2026-05-06 12:48 9.87612 -79.23811 14070 ft 195 kts 339°
2026-05-06 12:49 9.88903 -79.24330 14070 ft 195 kts 339°
2026-05-06 12:49 9.90187 -79.24846 14070 ft 195 kts 339°
2026-05-06 12:49 9.91474 -79.25363 14070 ft 195 kts 339°
2026-05-06 12:49 9.92748 -79.25876 14070 ft 195 kts 339°
2026-05-06 12:50 9.94050 -79.26399 14070 ft 195 kts 339°
2026-05-06 12:50 9.95350 -79.26922 14070 ft 195 kts 339°
2026-05-06 12:50 9.96628 -79.27435 14070 ft 195 kts 339°
2026-05-06 12:50 9.97924 -79.27957 14070 ft 195 kts 339°
2026-05-06 12:51 9.99210 -79.28474 14070 ft 195 kts 339°
2026-05-06 12:51 10.00493 -79.28990 14070 ft 195 kts 339°
2026-05-06 12:51 10.01789 -79.29511 14070 ft 195 kts 339°
2026-05-06 12:51 10.03073 -79.30028 14070 ft 195 kts 339°
2026-05-06 12:52 10.04371 -79.30550 14070 ft 195 kts 339°
2026-05-06 12:52 10.05649 -79.31065 14070 ft 195 kts 339°
2026-05-06 12:52 10.06943 -79.31585 14070 ft 195 kts 339°
2026-05-06 12:52 10.08222 -79.32100 14070 ft 195 kts 339°
2026-05-06 12:53 10.09518 -79.32621 14070 ft 195 kts 339°
2026-05-06 12:53 10.10814 -79.33143 14070 ft 195 kts 339°
2026-05-06 12:53 10.12106 -79.33663 14070 ft 195 kts 339°
2026-05-06 12:53 10.13399 -79.34183 14070 ft 195 kts 339°
2026-05-06 12:54 10.14684 -79.34701 14070 ft 195 kts 339°
2026-05-06 12:54 10.15961 -79.35214 14070 ft 195 kts 339°
2026-05-06 12:54 10.17250 -79.35734 14070 ft 195 kts 339°
2026-05-06 12:54 10.18556 -79.36259 14070 ft 195 kts 339°
2026-05-06 12:55 10.19842 -79.36777 14070 ft 195 kts 339°
2026-05-06 12:55 10.21129 -79.37296 14070 ft 195 kts 339°
2026-05-06 12:55 10.22406 -79.37811 14070 ft 195 kts 339°
2026-05-06 12:55 10.23705 -79.38334 14070 ft 195 kts 339°
2026-05-06 12:56 10.24994 -79.38853 14070 ft 195 kts 339°
2026-05-06 12:56 10.26286 -79.39373 14070 ft 195 kts 339°
2026-05-06 12:56 10.27577 -79.39893 14070 ft 195 kts 339°
2026-05-06 12:56 10.28861 -79.40411 14070 ft 195 kts 339°
2026-05-06 12:57 10.30143 -79.40928 14070 ft 195 kts 339°
2026-05-06 12:57 10.31446 -79.41453 14070 ft 195 kts 339°
2026-05-06 12:57 10.32742 -79.41975 14070 ft 195 kts 339°
2026-05-06 12:57 10.34022 -79.42491 14070 ft 195 kts 339°
2026-05-06 12:58 10.35318 -79.43014 14070 ft 195 kts 339°
2026-05-06 12:58 10.36603 -79.43532 14070 ft 195 kts 339°
2026-05-06 12:58 10.37884 -79.44048 14070 ft 195 kts 339°
2026-05-06 12:58 10.39179 -79.44570 14070 ft 195 kts 339°
2026-05-06 12:59 10.40467 -79.45090 14070 ft 195 kts 339°
2026-05-06 12:59 10.41771 -79.45616 14070 ft 195 kts 339°
2026-05-06 12:59 10.43060 -79.46136 14070 ft 195 kts 339°
2026-05-06 12:59 10.44328 -79.46648 14070 ft 195 kts 339°
2026-05-06 13:00 10.45632 -79.47173 14070 ft 195 kts 339°
2026-05-06 13:00 10.46920 -79.47693 14070 ft 195 kts 339°
2026-05-06 13:00 10.48212 -79.48214 14070 ft 195 kts 339°
2026-05-06 13:00 10.49493 -79.48731 14070 ft 196 kts 339°
2026-05-06 13:01 10.50799 -79.49258 14070 ft 196 kts 339°
2026-05-06 13:01 10.52089 -79.49783 14070 ft 196 kts 337°
2026-05-06 13:01 10.53175 -79.50625 14074 ft 196 kts 316°
2026-05-06 13:01 10.54185 -79.51615 14071 ft 197 kts 316°
2026-05-06 13:02 10.55173 -79.52624 14070 ft 197 kts 315°
2026-05-06 13:02 10.56157 -79.53645 14070 ft 197 kts 315°
2026-05-06 13:02 10.57127 -79.54662 14070 ft 197 kts 315°
2026-05-06 13:02 10.58088 -79.55673 14070 ft 197 kts 315°
2026-05-06 13:03 10.59059 -79.56698 14070 ft 197 kts 315°
2026-05-06 13:03 10.60041 -79.57734 14070 ft 197 kts 315°
2026-05-06 13:03 10.61005 -79.58753 14070 ft 197 kts 315°
2026-05-06 13:03 10.61974 -79.59778 14070 ft 197 kts 315°
2026-05-06 13:04 10.62934 -79.60792 14070 ft 197 kts 315°
2026-05-06 13:04 10.63909 -79.61822 14070 ft 197 kts 315°
2026-05-06 13:04 10.64553 -79.62504 14070 ft 197 kts 315°
2026-05-06 13:04 10.65844 -79.63869 14070 ft 197 kts 315°
2026-05-06 13:05 10.66815 -79.64896 14070 ft 197 kts 315°
2026-05-06 13:05 10.67795 -79.65934 14069 ft 197 kts 314°
2026-05-06 13:05 10.68761 -79.66956 14069 ft 197 kts 314°
2026-05-06 13:05 10.69729 -79.67979 14069 ft 197 kts 314°
2026-05-06 13:06 10.70693 -79.69000 14069 ft 197 kts 314°
2026-05-06 13:06 10.71672 -79.70036 14069 ft 197 kts 314°
2026-05-06 13:06 10.72632 -79.71051 14069 ft 197 kts 314°
2026-05-06 13:06 10.73610 -79.72087 14069 ft 197 kts 314°
2026-05-06 13:07 10.74572 -79.73106 14069 ft 197 kts 314°
2026-05-06 13:07 10.75538 -79.74128 14069 ft 197 kts 314°
2026-05-06 13:07 10.76503 -79.75150 14069 ft 197 kts 314°
2026-05-06 13:07 10.77475 -79.76179 14069 ft 197 kts 314°
2026-05-06 13:08 10.78458 -79.77220 14070 ft 197 kts 314°
2026-05-06 13:08 10.79096 -79.77897 14070 ft 197 kts 314°
2026-05-06 13:08 10.80384 -79.79260 14070 ft 197 kts 314°
2026-05-06 13:08 10.81354 -79.80288 14070 ft 197 kts 314°
2026-05-06 13:09 10.82315 -79.81306 14070 ft 197 kts 314°
2026-05-06 13:09 10.83300 -79.82349 14069 ft 197 kts 314°
2026-05-06 13:09 10.84257 -79.83364 14069 ft 197 kts 314°
2026-05-06 13:09 10.85235 -79.84400 14070 ft 197 kts 314°
2026-05-06 13:10 10.86196 -79.85419 14070 ft 197 kts 314°
2026-05-06 13:10 10.87168 -79.86449 14070 ft 197 kts 314°
2026-05-06 13:10 10.88136 -79.87476 14070 ft 197 kts 314°
2026-05-06 13:10 10.89100 -79.88499 14069 ft 197 kts 314°
2026-05-06 13:11 10.90063 -79.89522 14070 ft 197 kts 315°
2026-05-06 13:11 10.91035 -79.90553 14070 ft 197 kts 315°
2026-05-06 13:11 10.92007 -79.91584 14070 ft 197 kts 315°
2026-05-06 13:11 10.92983 -79.92619 14070 ft 198 kts 315°
2026-05-06 13:12 10.93952 -79.93647 14070 ft 198 kts 315°
2026-05-06 13:12 10.94928 -79.94683 14070 ft 199 kts 315°
2026-05-06 13:12 10.95907 -79.95721 14070 ft 199 kts 315°
2026-05-06 13:12 10.96896 -79.96770 14070 ft 199 kts 315°
2026-05-06 13:13 10.97870 -79.97804 14070 ft 200 kts 315°
2026-05-06 13:13 10.98848 -79.98842 14070 ft 200 kts 315°
2026-05-06 13:13 10.99838 -79.99892 14070 ft 201 kts 315°
2026-05-06 13:13 11.00835 -80.00950 14070 ft 201 kts 315°
2026-05-06 13:14 11.01833 -80.02010 14070 ft 202 kts 315°
2026-05-06 13:14 11.02814 -80.03052 14070 ft 202 kts 316°
2026-05-06 13:14 11.03820 -80.04120 14070 ft 203 kts 316°
2026-05-06 13:14 11.04819 -80.05180 14071 ft 203 kts 316°
2026-05-06 13:15 11.05809 -80.06231 14072 ft 204 kts 316°
2026-05-06 13:15 11.06823 -80.07307 14073 ft 204 kts 316°
2026-05-06 13:15 11.07822 -80.08369 14074 ft 204 kts 316°
2026-05-06 13:15 11.08819 -80.09427 14075 ft 204 kts 316°
2026-05-06 13:16 11.09829 -80.10500 14077 ft 204 kts 316°
2026-05-06 13:16 11.10828 -80.11562 14078 ft 204 kts 316°
2026-05-06 13:16 11.11827 -80.12623 14080 ft 204 kts 316°
2026-05-06 13:16 11.12832 -80.13692 14082 ft 204 kts 316°
2026-05-06 13:17 11.13167 -80.14048 14083 ft 204 kts 316°